User: anonymous   Login
Location: Champs
(48.8539°N, 2.6040°E)
Time: 10:34:34
(UTC+00:00)
Language:

CSL-04 Deb - Orbit

View from above orbital plane
View from above orbital plane
View from above satellite
View from above satellite

Ground track
Ground track

The orbit data is extracted from the following two-line orbital elements,

1 26260U 99057EW  22229.09455528  .00002199  00000-0  51705-3 0  9993
2 26260  98.4886 265.7889 0085311  45.9646 314.8536 14.53223461179400
Epoch (UTC): 17 August 2022 02:16:09
Eccentricity: 0.0085311
inclination: 98.4886°
perigee height: 654 km
apogee height: 775 km
right ascension of ascending node: 265.7889°
argument of perigee: 45.9646°
revolutions per day: 14.53223461
mean anomaly at epoch: 314.8536°
orbit number at epoch: 17940

The dashed part of the orbit path shows where the satellite is in the earth's shadow,  

DLR